CZ-6A DEB, 60625

Orbit data source: Space-Track

CZ-6A DEB, 60625 is space debris in LEO originally from a launch on Tue, 06 Aug 2024 UTC launched from the Taiyaun Space Center, China (TSC). Debris objects in space refer to the collection of defunct objects orbiting the Earth. Examples of debris include non-operational satellites, rocket bodies, and fragments generated from explosions, collisions, or faulty payload assembly.

Loading next visibility...
Identifier
60625, 2024-140AA
Orbit
LEO
Country
Flag of CNCN / PRC
Related business
Manufacturer
SAST
Mission
Spacecraft
Bus & Motor
Unknown
Mass
Unknown
Launch date (UTC)
2024-08-06 (1 year ago)
Launch vehicle
Unknown
Launch site
Taiyaun Space Center, China (TSC)
Object type
Payload
Rocket body
Debris
Shape & HBR
Unknown shape, 0.2 m
Radar Cross Section
Small (<0.1 m²)

Expand to show TLE details & history
Last TLE update: 2 days ago

TLE from 2 days ago
0 CZ-6A DEB
1 60625U 24140AA  25311.97946416  .00011676  00000-0  32192-2 0  9998
2 60625  88.9957 297.7730 0066430  11.9458 348.3303 14.45469240 65924
Epoch: 2025-11-07T23:30Z
TLE epoch observation values (Epoch: 2025-11-07T23:30:25.703Z)
Latitude
0.00003°
Longitude
-102.24975°
Altitude
697.266 km
Speed
7.532 km/s
True Right ascension
19h 51m 05s
True Declination
0° 00' 00"
Sunlit
Object was in daylight at epoch
Visualization orbit readout
Latitude
Unknown
Longitude
Unknown
Altitude
Unknown
Speed
Unknown
Apparent Right ascension
Unknown
Apparent Declination
Unknown
Sunlit
N/A
Visualization observer readout
Local Sidereal Time
19:50:15
Azimuth
Unknown
Elevation
Unknown
Doppler factor
Unknown
Orbital elements
Apogee altitude
784.668 km
Perigee altitude
690.131 km
Semi-major axis
7,115.537 km
Eccentricity
0.00664
Inclination
88.9957°
RAAN
297.773°
Arg. of periapsis
11.9458°
True anomaly
348.17506°
Mean anomaly
348.3303°
Eccentric anomaly
348.25281°
Mean motion
3.61603 °/min
Orbital period
99.56 mins
BSTAR
0.0032192
Loading maneuver chart data...
Computing Atmospheric mass density...

Documentation

Showing up to 5 results
|